Terug naar catalogus

STARLINK-3501

ActiefCommunicatieVLEO
NORAD 51748·PAYLOAD·🇺🇸 United States

Gelanceerd Feb 21, 2022 vanaf Cape Canaveral Space Force Station

Loading…

Volgende Passages (komende 24 uur)

TLE

VersSource: CelesTrak SupGP

Epoch: Sep 15, 2026, 02:28 UTC

1 51748C 22016AL  26258.10326389  .00022945  00000+0  67797-3 0  2589
2 51748  53.1580 164.5978 0001345  80.5136 130.4146 15.34376138    16

Volg STARLINK-3501 in realtime met AllMySat

Download on the App Store